TimeMDT,TemperatureF,Dew PointF,Humidity,Sea Level PressureIn,VisibilityMPH,Wind Direction,Wind SpeedMPH,Gust SpeedMPH,PrecipitationIn,Events,Conditions,WindDirDegrees,DateUTC
12:55 AM,62.1,48.9,62,29.96,10.0,North,4.6,-,N/A,,Mostly Cloudy,350,2013-06-15 06:55:00
1:55 AM,62.1,46.9,58,29.96,10.0,North,9.2,-,N/A,,Scattered Clouds,350,2013-06-15 07:55:00
2:55 AM,61.0,46.0,58,29.93,10.0,North,10.4,-,N/A,,Clear,360,2013-06-15 08:55:00
3:55 AM,62.1,44.1,52,29.91,10.0,North,10.4,-,N/A,,Mostly Cloudy,350,2013-06-15 09:55:00
4:55 AM,60.1,46.0,60,29.95,10.0,Calm,Calm,-,N/A,,Clear,0,2013-06-15 10:55:00
5:55 AM,57.0,46.0,67,29.98,10.0,Calm,Calm,-,N/A,,Mostly Cloudy,0,2013-06-15 11:55:00
6:55 AM,62.1,48.9,62,29.98,10.0,WNW,3.5,-,N/A,,Mostly Cloudy,290,2013-06-15 12:55:00
7:55 AM,68.0,46.0,45,29.99,10.0,Calm,Calm,-,N/A,,Overcast,0,2013-06-15 13:55:00
8:55 AM,70.0,43.0,38,30.00,10.0,ENE,4.6,-,N/A,,Overcast,60,2013-06-15 14:55:00
9:55 AM,73.9,41.0,30,29.99,10.0,NNW,3.5,-,N/A,,Mostly Cloudy,340,2013-06-15 15:55:00
10:55 AM,73.9,44.1,34,29.99,10.0,North,11.5,-,N/A,,Overcast,350,2013-06-15 16:55:00
11:55 AM,75.9,45.0,33,29.98,10.0,West,6.9,-,N/A,,Mostly Cloudy,280,2013-06-15 17:55:00
12:55 PM,77.0,41.0,28,29.97,10.0,NNE,8.1,-,N/A,,Overcast,20,2013-06-15 18:55:00
1:55 PM,80.1,42.1,26,29.96,10.0,Calm,Calm,-,N/A,,Clear,0,2013-06-15 19:55:00
2:55 PM,81.0,44.1,27,29.94,10.0,WSW,3.5,-,N/A,,Clear,250,2013-06-15 20:55:00
3:55 PM,81.0,44.1,27,29.92,10.0,NW,6.9,-,N/A,,Clear,310,2013-06-15 21:55:00
4:55 PM,80.1,45.0,29,29.91,10.0,Calm,Calm,-,N/A,,Clear,0,2013-06-15 22:55:00
5:55 PM,80.1,46.9,31,29.91,10.0,SW,9.2,-,N/A,,Clear,230,2013-06-15 23:55:00
6:55 PM,78.1,46.9,33,29.91,10.0,SW,5.8,-,N/A,,Clear,220,2013-06-16 00:55:00
7:55 PM,75.9,51.1,42,29.91,10.0,Calm,Calm,-,N/A,,Clear,0,2013-06-16 01:55:00
8:55 PM,64.9,50.0,58,29.93,10.0,Calm,Calm,-,N/A,,Clear,0,2013-06-16 02:55:00
9:55 PM,64.0,48.9,58,29.95,10.0,Calm,Calm,-,N/A,,Clear,0,2013-06-16 03:55:00
10:55 PM,61.0,50.0,67,29.94,10.0,ENE,3.5,-,N/A,,Clear,70,2013-06-16 04:55:00
11:55 PM,62.1,48.0,60,29.94,10.0,South,3.5,-,N/A,,Clear,180,2013-06-16 05:55:00